Guymon, OK

6:58 AM CST on November 21, 2017 (GMT -0600)
Guymon Municipal

Weather History for KGUY - March, 2014

Change the Weather History Date:

Sunday, March 16, 2014

  Actual Average Record
Temperature  
Mean Temperature 41 °F 46 °F  
Max Temperature 51 °F 61 °F 89 °F (2017)
Min Temperature 30 °F 32 °F 18 °F (2002)
Degree Days  
Heating Degree Days 24 19  
Month to date heating degree days 376 335  
Since 1 July heating degree days 3942 3802  
Cooling Degree Days 0 0  
Month to date cooling degree days 0 0  
Year to date cooling degree days 0 0  
Moisture  
Dew Point 23 °F    
Average Humidity 50    
Maximum Humidity 75    
Minimum Humidity 24    
Precipitation  
Precipitation 0.00 in 0.05 in 0.00 in (2017)
Month to date precipitation 0.21 0.73  
Year to date precipitation 0.55 1.60  
Snow  
Snow 0.00 in - - ()
Month to date snowfall 1.5  
Since 1 July snowfall 14.2  
Snow Depth 0.00 in    
Sea Level Pressure  
Sea Level Pressure 30.18 in    
Wind  
Wind Speed 15 mph (North)    
Max Wind Speed 33 mph    
Max Gust Speed 40 mph    
Visibility 10 miles    
Events      
T = Trace of Precipitation, MM = Missing Value Source: NWS Daily Summary

Daily Weather History Graph

Daily Weather History Graph

Search for Another Location

Airport or City:

Trip Planner

Search our weather history database for the weather conditions in past years. The results will help you decide how hot, cold, wet, or windy it might be!

Date:

Astronomy

Mar. 16, 2014 Rise Set
Actual Time 7:55 AM CDT 7:54 PM CDT
Civil Twilight 7:29 AM CDT 8:20 PM CDT
Nautical Twilight 6:59 AM CDT 8:50 PM CDT
Astronomical Twilight 6:29 AM CDT 9:20 PM CDT
Moon 8:12 PM CDT (3/16) 7:40 AM CDT (3/16)
Length of Visible Light 12h 50m
Length of Day
11h 58m
Full, 100% of the Moon is Illuminated
Mar 16
Full
Mar 16
Full
Mar 23
Last Quarter
Mar 30
New
Apr 7
First Quarter

Hourly Weather History & Observations

Time (CDT) Temp. Windchill Dew Point Humidity Pressure Visibility Wind Dir Wind Speed Gust Speed Precip Events Conditions
12:53 AM 41.0 °F 30.9 °F 32.0 °F 70% 30.09 in 10.0 mi North 24.2 mph 33.4 mph N/A   Clear
1:12 AM 42.1 °F 32.3 °F 32.0 °F 67% 30.14 in 10.0 mi North 24.2 mph 34.5 mph N/A   Mostly Cloudy
1:53 AM 43.0 °F 32.9 °F 32.0 °F 65% 30.10 in 10.0 mi North 27.6 mph 40.3 mph N/A   Overcast
2:04 AM 43.0 °F 32.9 °F 32.0 °F 65% 30.15 in 10.0 mi North 27.6 mph 40.3 mph N/A   Mostly Cloudy
2:53 AM 39.9 °F 30.2 °F 30.9 °F 70% 30.13 in 10.0 mi North 20.7 mph 32.2 mph N/A   Partly Cloudy
3:53 AM 37.0 °F 25.6 °F 28.9 °F 73% 30.15 in 10.0 mi North 24.2 mph 33.4 mph N/A   Clear
4:09 AM 37.9 °F 26.3 °F 28.0 °F 68% 30.19 in 10.0 mi North 26.5 mph 38.0 mph N/A   Mostly Cloudy
4:48 AM 33.8 °F 22.5 °F 26.6 °F 75% 30.20 in 10.0 mi North 19.6 mph 28.8 mph N/A   Partly Cloudy
4:53 AM 34.0 °F 22.7 °F 26.1 °F 73% 30.17 in 10.0 mi North 19.6 mph - N/A   Partly Cloudy
5:53 AM 32.0 °F 20.1 °F 24.1 °F 73% 30.19 in 10.0 mi North 19.6 mph - N/A   Clear
6:53 AM 30.0 °F 18.3 °F 23.0 °F 75% 30.22 in 10.0 mi North 17.3 mph - N/A   Clear
7:53 AM 30.0 °F 19.5 °F 23.0 °F 75% 30.24 in 10.0 mi North 13.8 mph - N/A   Partly Cloudy
8:53 AM 32.0 °F 20.5 °F 24.1 °F 73% 30.26 in 10.0 mi North 18.4 mph - N/A   Overcast
9:05 AM 32.0 °F 20.5 °F 24.1 °F 73% 30.28 in 10.0 mi North 18.4 mph - N/A   Overcast
9:53 AM 33.1 °F 21.9 °F 24.1 °F 70% 30.29 in 10.0 mi North 18.4 mph - N/A   Overcast
10:53 AM 34.0 °F 22.7 °F 24.1 °F 67% 30.32 in 10.0 mi North 19.6 mph - N/A   Overcast
11:53 AM 37.0 °F 25.6 °F 24.1 °F 59% 30.30 in 10.0 mi North 24.2 mph 31.1 mph N/A   Overcast
12:32 PM 41.0 °F 31.4 °F 24.1 °F 51% 30.29 in 10.0 mi North 21.9 mph - N/A   Overcast
12:53 PM 42.1 °F 33.3 °F 23.0 °F 47% 30.28 in 10.0 mi North 19.6 mph 28.8 mph N/A   Mostly Cloudy
1:53 PM 44.1 °F 36.5 °F 23.0 °F 43% 30.24 in 10.0 mi North 17.3 mph 25.3 mph N/A   Partly Cloudy
2:53 PM 46.0 °F 39.0 °F 21.9 °F 39% 30.19 in 10.0 mi North 17.3 mph 27.6 mph N/A   Clear
3:53 PM 48.9 °F - 19.9 °F 32% 30.15 in 10.0 mi NNE 17.3 mph 25.3 mph N/A   Clear
4:53 PM 51.1 °F - 17.1 °F 26% 30.13 in 10.0 mi NNE 17.3 mph 21.9 mph N/A   Clear
5:53 PM 50.0 °F - 16.0 °F 26% 30.13 in 10.0 mi North 12.7 mph 21.9 mph N/A   Clear
6:53 PM 48.9 °F - 16.0 °F 27% 30.12 in 10.0 mi North 11.5 mph - N/A   Clear
7:53 PM 44.1 °F - 15.1 °F 31% 30.12 in 10.0 mi Calm Calm - N/A   Clear
8:53 PM 41.0 °F 39.0 °F 16.0 °F 36% 30.13 in 10.0 mi South 3.5 mph - N/A   Clear
9:53 PM 36.0 °F 32.1 °F 16.0 °F 44% 30.12 in 10.0 mi SSE 4.6 mph - N/A   Clear
10:53 PM 33.1 °F 27.7 °F 16.0 °F 50% 30.11 in 10.0 mi SSW 5.8 mph - N/A   Clear
11:53 PM 32.0 °F 24.8 °F 16.0 °F 52% 30.11 in 10.0 mi SW 8.1 mph - N/A   Clear